GSAT-9

Last updated on Sat Aug 22 2026 00:02:59 GMT+0000 (Coordinated Universal Time)

1 42695U 17024A 26233.50150130 -.00000287 00000+0 00000+0 0 9997 2 42695 0.0463 256.5570 0002031 269.0254 82.0636 1.00267945 33954
UTC large
Height (km)
Speed (km/s)
/
Latitude / Longitude
Inclination (degrees)
Orbital Period (minutes)
Azimuth
Elevation
Range (km)
Doppler Factor

Next 0 passes for location: London (51.5072 / 0.1276)

No passes found over London.
GSAT-9